Location: Bogis-Bossey
(46.3500°N, 6.1667°E)
Time: 18:27:52
(UTC+00:00)

Cosmos 2112 Rocket - Pass Details

Date: 17 August 2022
Orbit: 755 x 787 km, 74.1° (Epoch: 30 September)

Event Time Altitude Azimuth Distance (km) Brightness Sun altitude
Exits shadow 20:43:48 33° 157° (SSE) 1,262 4.6 -18.6°
Maximum altitude 20:45:42 48° 105° (ESE) 982 4.2 -18.8°
Drops below altitude 10° 20:50:40 10° 32° (NNE) 2,292 6.6 -19.4°
Sets 20:53:06 0° 27° (NNE) 3,221 7.5 -19.7°
